[[{"header":{"parameterUnit":"m.s-1","parameterCategory":1,"la1":30.2991,"la2":30.254,"lo1":-89.0895,"lo2":-89.0444,"dy":0.0017,"dx":0.0017,"nx":28,"ny":28,"refTime":"2025-06-22T03:00:00:Z","depth":0,"parameterNumber":2,"parameterNumberName":"U-component_of_WINDS"},"data":[0,0,0,0,0,0,0,0,0,0,0,0,0,0,0,0,0,0,0,0,0,0,0,0,0,0,0,0,0,0,0,0,0,0,0,0,0,0,0,0,0,0,0,0,0,0,0,0,0,0,0,0,0,0,0,0,0,0,-0.0576,-0.0576,0,-0.0554,-0.0553,-0.0553,-0.0527,-0.0526,-0.0526,-0.0525,-0.0504,-0.0504,-0.0503,0,0,0,0,0,0,0,0,0,0,0,0,0,-0.0599,-0.0598,-0.0576,-0.0576,-0.0576,-0.0554,-0.0553,-0.0553,-0.0527,-0.0526,-0.0526,-0.0525,-0.0504,-0.0504,-0.0503,0,0,0,0,0,0,0,0,0,0,0,0,0,-0.0584,-0.0598,-0.0576,-0.056,-0.0558,-0.0554,-0.0553,-0.0553,-0.0527,-0.0526,-0.0525,-0.0525,-0.0504,-0.0504,-0.0503,-0.0514,0,0,-0.0503,-0.0502,0,0,0,0,0,0,0,0,-0.0585,-0.0583,-0.0563,-0.0561,-0.0559,-0.0542,-0.0553,-0.054,-0.0527,-0.0539,-0.0525,-0.0525,-0.0517,-0.0516,-0.0513,-0.0513,-0.0512,-0.0503,-0.0502,-0.0502,-0.0502,0,0,0,0,0,0,0,-0.0586,-0.0584,-0.0567,-0.0562,-0.056,-0.0554,-0.0551,-0.0551,-0.0532,-0.0538,-0.0536,-0.0533,-0.0516,-0.0513,-0.0512,-0.0512,-0.0503,-0.0502,-0.0502,-0.0502,-0.0521,-0.0521,0,0,0,0,0,0,-0.0589,-0.0585,-0.0568,-0.0567,-0.0571,-0.0554,-0.0551,-0.0548,-0.0532,-0.0529,-0.0534,-0.0532,-0.0514,-0.0513,-0.0511,-0.0524,-0.0502,-0.0502,-0.0502,-0.052,-0.0521,-0.0521,0,0,0,0,0,0,-0.059,-0.0588,-0.0569,-0.0575,-0.0572,-0.0555,-0.0552,-0.0548,-0.0545,-0.0529,-0.0525,-0.0534,-0.0514,-0.0512,-0.0514,-0.0523,-0.0502,-0.0502,-0.0519,-0.052,-0.0521,-0.0548,0,0,0,0,0,0,-0.059,-0.0588,-0.0592,-0.0576,-0.0572,-0.0571,-0.0552,-0.0548,-0.0545,-0.0542,-0.0528,-0.0525,-0.0513,-0.0514,-0.0513,-0.0522,-0.0501,-0.0518,-0.052,-0.0521,-0.0546,-0.055,-0.0553,0,0,0,0,0,-0.0591,-0.06,-0.0592,-0.059,-0.0576,-0.0572,-0.057,-0.0555,-0.0545,-0.0549,-0.0539,-0.0526,-0.0521,-0.0515,-0.0514,-0.0522,-0.0518,-0.0519,-0.0521,-0.0545,-0.0549,-0.0552,0,0,0,0,0,0,-0.0618,-0.0598,-0.0588,-0.0592,-0.0584,-0.0567,-0.0571,-0.056,-0.0554,-0.0552,-0.0534,-0.0532,-0.0536,-0.0529,-0.0522,-0.0532,-0.0518,-0.0519,-0.0536,-0.054,-0.0544,-0.0546,-0.0501,0,0,0,0,0,-0.0624,-0.0622,-0.0605,-0.061,-0.0606,-0.0589,-0.0587,-0.0576,-0.0567,-0.0564,-0.0553,-0.0545,-0.0542,-0.0541,-0.0537,-0.0545,-0.0542,-0.055,-0.0553,-0.0556,-0.0558,-0.0562,-0.0566,-0.0526,-0.0526,-0.0526,0,0,-0.0638,-0.0626,-0.0626,-0.0615,-0.0607,-0.0606,-0.0587,-0.0586,-0.0585,-0.0564,-0.0565,-0.0557,-0.0547,-0.0552,-0.0554,-0.0547,-0.0568,-0.0558,-0.056,-0.056,-0.0564,-0.0568,-0.0571,-0.0527,-0.0527,-0.0527,0,0,-0.0661,-0.0652,-0.0655,-0.0648,-0.0636,-0.0625,-0.0626,-0.0612,-0.0606,-0.0606,-0.059,-0.0589,-0.0584,-0.0578,-0.0574,-0.0596,-0.0585,-0.0595,-0.0613,-0.0618,-0.0621,-0.0623,-0.0632,-0.0636,-0.0597,-0.0597,-0.0597,0,-0.0679,-0.0676,-0.0659,-0.0659,-0.0656,-0.0635,-0.064,-0.0633,-0.0621,-0.062,-0.0611,-0.0605,-0.0597,-0.0601,-0.0606,-0.0603,-0.0605,-0.0597,-0.0622,-0.0624,-0.0626,-0.0635,-0.0638,-0.0598,-0.0598,-0.0598,-0.0598,0,-0.07,-0.0698,-0.0702,-0.0691,-0.0687,-0.069,-0.0674,-0.0672,-0.0662,-0.0652,-0.0654,-0.0643,-0.0637,-0.0637,-0.0627,-0.064,-0.0636,-0.0625,-0.061,-0.0632,-0.064,-0.0643,-0.0601,-0.06,-0.06,-0.0599,0,0,-0.074,-0.0719,-0.0721,-0.0716,-0.0702,-0.0701,-0.0702,-0.0696,-0.0696,-0.0688,-0.069,-0.0686,-0.0676,-0.0672,-0.0661,-0.0665,-0.0684,-0.0653,-0.0653,-0.0661,-0.0699,-0.0709,-0.0713,-0.0676,-0.0677,-0.0677,-0.0701,0,-0.0762,-0.0764,-0.0748,-0.0754,-0.0753,-0.0734,-0.0735,-0.0727,-0.0718,-0.0717,-0.0707,-0.0705,-0.0691,-0.0688,-0.0691,-0.0681,-0.0692,-0.0679,-0.0679,-0.0679,-0.0683,-0.0716,-0.0726,-0.0749,-0.0703,-0.0704,-0.0704,0,-0.0788,-0.0782,-0.0788,-0.0774,-0.0773,-0.0774,-0.0768,-0.0766,-0.0757,-0.075,-0.0745,-0.0733,-0.0734,-0.072,-0.0723,-0.0714,-0.0713,-0.0708,-0.0709,-0.0709,-0.0694,-0.0719,-0.0756,-0.076,-0.0708,-0.0708,-0.0708,0,-0.0819,-0.0812,-0.0814,-0.081,-0.0794,-0.0796,-0.0789,-0.0779,-0.0777,-0.0771,-0.077,-0.0765,-0.0762,-0.0759,-0.0745,-0.0736,-0.075,-0.0734,-0.0745,-0.0746,-0.075,-0.075,-0.0789,-0.0748,-0.0747,-0.0747,-0.0747,0,-0.0846,-0.085,-0.0828,-0.083,-0.0835,-0.0817,-0.0823,-0.0814,-0.0806,-0.0806,-0.0789,-0.079,-0.0772,-0.0771,-0.076,-0.0765,-0.0763,-0.0759,-0.0756,-0.0761,-0.0762,-0.0761,-0.076,-0.0748,-0.0748,-0.0748,-0.0748,0,-0.0881,-0.0866,-0.0868,-0.0852,-0.0848,-0.0853,-0.084,-0.0841,-0.0831,-0.0832,-0.0831,-0.0815,-0.0814,-0.0799,-0.0794,-0.0787,-0.0797,-0.079,-0.08,-0.0798,-0.0811,-0.081,-0.0851,-0.0856,-0.081,-0.0811,-0.0811,0,-0.09,-0.0903,-0.0888,-0.0886,-0.0881,-0.0879,-0.0876,-0.0859,-0.0857,-0.0847,-0.085,-0.0847,-0.0844,-0.0842,-0.083,-0.0827,-0.0821,-0.0835,-0.082,-0.0826,-0.0823,-0.0823,-0.0824,-0.0839,-0.084,-0.084,-0.084,0,-0.0936,-0.0928,-0.0924,-0.0919,-0.0916,-0.091,-0.0904,-0.0904,-0.0885,-0.0884,-0.0882,-0.0879,-0.0874,-0.0872,-0.0866,-0.086,-0.0848,-0.0845,-0.0848,-0.0854,-0.0859,-0.0858,-0.081,-0.0845,-0.0844,-0.0844,-0.0844,-0.0843,-0.0964,-0.0966,-0.0956,-0.0953,-0.0946,-0.0941,-0.0942,-0.0931,-0.0929,-0.0923,-0.0913,-0.0913,-0.0904,-0.0895,-0.089,-0.089,-0.0883,-0.0886,-0.0887,-0.0889,-0.0892,-0.0858,-0.0889,-0.0889,-0.0889,-0.0888,-0.0888,0,-0.1,-0.0992,-0.0989,-0.0981,-0.0979,-0.0966,-0.0959,-0.0958,-0.0958,-0.095,-0.0947,-0.0945,-0.0942,-0.0931,-0.0927,-0.0929,-0.0924,-0.0929,-0.093,-0.0929,-0.0898,-0.0897,-0.0934,-0.0934,-0.0934,-0.0934,-0.0934,-0.0934,-0.1018,-0.1022,-0.1013,-0.1014,-0.1006,-0.1005,-0.1002,-0.0997,-0.0991,-0.0989,-0.0987,-0.0979,-0.097,-0.0966,-0.0963,-0.096,-0.096,-0.0968,-0.0963,-0.0935,-0.0931,-0.0926,-0.0925,-0.0968,-0.0968,-0.0993,-0.0994,-0.0994]},{"header":{"parameterUnit":"m.s-1","parameterCategory":1,"la1":30.2991,"la2":30.254,"lo1":-89.0895,"lo2":-89.0444,"dy":0.0017,"dx":0.0017,"nx":28,"ny":28,"refTime":"2025-06-22T03:00:00:Z","depth":0,"parameterNumber":3,"parameterNumberName":"V-component_of_WINDS"},"data":[0,0,0,0,0,0,0,0,0,0,0,0,0,0,0,0,0,0,0,0,0,0,0,0,0,0,0,0,0,0,0,0,0,0,0,0,0,0,0,0,0,0,0,0,0,0,0,0,0,0,0,0,0,0,0,0,0,0,2.5433,2.5433,0,2.5415,2.5415,2.5415,2.5368,2.5367,2.5366,2.5365,2.5347,2.5347,2.5348,0,0,0,0,0,0,0,0,0,0,0,0,0,2.5427,2.5427,2.5433,2.5433,2.5433,2.5415,2.5415,2.5415,2.5368,2.5367,2.5366,2.5365,2.5347,2.5347,2.5348,0,0,0,0,0,0,0,0,0,0,0,0,0,2.5421,2.5427,2.5433,2.5407,2.5405,2.5415,2.5415,2.5415,2.5368,2.5367,2.5365,2.5364,2.5347,2.5347,2.5348,2.5382,0,0,2.535,2.535,0,0,0,0,0,0,0,0,2.5422,2.5422,2.5411,2.5409,2.5406,2.5392,2.5406,2.5404,2.5369,2.5382,2.5365,2.5363,2.5363,2.5362,2.5362,2.5381,2.538,2.535,2.535,2.5351,2.5351,0,0,0,0,0,0,0,2.5422,2.5422,2.5426,2.5411,2.5408,2.5397,2.5394,2.5405,2.5381,2.5381,2.5378,2.5376,2.5362,2.5362,2.5362,2.538,2.535,2.5351,2.5351,2.5351,2.5425,2.5426,0,0,0,0,0,0,2.5426,2.5423,2.5427,2.5425,2.541,2.5398,2.5395,2.5398,2.5381,2.5377,2.5377,2.5374,2.5361,2.5361,2.5361,2.5398,2.5351,2.5351,2.5352,2.5423,2.5425,2.5427,0,0,0,0,0,0,2.5426,2.5427,2.5427,2.5423,2.5422,2.54,2.5404,2.5399,2.5399,2.5378,2.5374,2.5382,2.536,2.536,2.5377,2.5397,2.5352,2.5352,2.5421,2.5424,2.5426,2.5474,0,0,0,0,0,0,2.5426,2.5427,2.544,2.5424,2.5423,2.5444,2.5405,2.5399,2.54,2.5396,2.5382,2.5378,2.5359,2.5376,2.5377,2.5397,2.5353,2.5419,2.5422,2.5425,2.5471,2.5478,2.5484,0,0,0,0,0,2.5426,2.5455,2.5441,2.5442,2.5438,2.5445,2.5444,2.5422,2.5402,2.5414,2.5401,2.5378,2.5395,2.5378,2.5379,2.54,2.5418,2.5421,2.5425,2.5468,2.5477,2.5484,0,0,0,0,0,0,2.5475,2.5452,2.5437,2.5461,2.5455,2.5437,2.5452,2.5433,2.5432,2.5428,2.5401,2.5398,2.5418,2.5411,2.5392,2.5431,2.5403,2.5406,2.5435,2.5443,2.545,2.5451,2.5353,0,0,0,0,0,2.5488,2.5495,2.5476,2.5499,2.5497,2.5475,2.5477,2.5461,2.5454,2.5451,2.5439,2.5433,2.5437,2.544,2.5442,2.547,2.5466,2.5485,2.5491,2.5497,2.55,2.5513,2.5521,2.5438,2.5438,2.5438,0,0,2.5516,2.5505,2.5511,2.5508,2.5502,2.551,2.5474,2.5484,2.5489,2.5453,2.5467,2.5458,2.545,2.5472,2.5481,2.5466,2.5522,2.5501,2.5506,2.5506,2.5517,2.5525,2.5532,2.544,2.544,2.5439,0,0,2.557,2.5563,2.5581,2.5575,2.5566,2.5551,2.5556,2.5541,2.5533,2.5547,2.552,2.5526,2.5533,2.5528,2.5526,2.5578,2.5557,2.558,2.5615,2.5628,2.5634,2.564,2.5657,2.5664,2.5584,2.5584,2.5584,0,2.5606,2.5617,2.5593,2.5604,2.5604,2.5571,2.5589,2.5584,2.5576,2.5576,2.556,2.5568,2.556,2.558,2.5592,2.5593,2.5596,2.5581,2.5635,2.5641,2.5645,2.5661,2.5668,2.5587,2.5586,2.5586,2.5586,0,2.5661,2.5669,2.5684,2.5677,2.5678,2.5693,2.5671,2.5675,2.5658,2.5645,2.566,2.5649,2.5648,2.5652,2.5636,2.5669,2.566,2.564,2.5611,2.5656,2.5671,2.5677,2.5591,2.559,2.5589,2.5588,0,0,2.5744,2.5723,2.5729,2.5725,2.5712,2.5718,2.5731,2.573,2.5733,2.5729,2.5738,2.5745,2.5726,2.5724,2.5707,2.5719,2.5759,2.5697,2.5696,2.5708,2.5794,2.5808,2.5815,2.5745,2.5746,2.5747,2.5794,0,2.5795,2.5815,2.5794,2.5819,2.5825,2.5794,2.5805,2.5798,2.5787,2.579,2.5777,2.5782,2.5757,2.5756,2.5766,2.5752,2.5776,2.5749,2.5753,2.5753,2.5755,2.5823,2.5838,2.5883,2.5799,2.58,2.5801,0,2.5856,2.5853,2.5879,2.5863,2.5865,2.5876,2.5872,2.5877,2.5868,2.5859,2.5856,2.5836,2.5847,2.582,2.5834,2.5816,2.5817,2.581,2.5811,2.581,2.5779,2.5822,2.5897,2.5903,2.581,2.5809,2.5809,0,2.5912,2.5916,2.5931,2.5929,2.5912,2.5919,2.5913,2.5903,2.5903,2.59,2.59,2.5899,2.5898,2.5898,2.5877,2.5859,2.5894,2.5865,2.5886,2.5886,2.5893,2.5893,2.5967,2.5896,2.5896,2.5896,2.5896,0,2.597,2.5986,2.5956,2.5966,2.5983,2.5958,2.5976,2.5966,2.5957,2.5964,2.5938,2.5944,2.5918,2.5921,2.5906,2.5919,2.5919,2.5911,2.5907,2.5913,2.5914,2.5912,2.5908,2.5898,2.5897,2.5897,2.5897,0,2.6035,2.6016,2.6031,2.6013,2.6009,2.6022,2.6007,2.6015,2.6001,2.601,2.6011,2.5989,2.5992,2.5972,2.5972,2.5961,2.5982,2.5973,2.5984,2.5981,2.6002,2.6,2.6077,2.6086,2.6011,2.6011,2.6012,0,2.6073,2.6084,2.6068,2.607,2.6065,2.6069,2.6069,2.6045,2.6046,2.6037,2.6046,2.6047,2.6046,2.6052,2.6036,2.6035,2.6025,2.6052,2.6025,2.603,2.6024,2.6023,2.6023,2.6058,2.6058,2.6059,2.606,0,2.614,2.613,2.6131,2.6129,2.6129,2.6126,2.6122,2.6125,2.6099,2.6102,2.6104,2.6104,2.6103,2.6104,2.61,2.6092,2.6072,2.6069,2.6073,2.6079,2.6085,2.608,2.5999,2.6067,2.6066,2.6066,2.6065,2.6065,2.6192,2.62,2.6189,2.6191,2.6185,2.6181,2.6187,2.6174,2.6176,2.6173,2.6159,2.6164,2.6154,2.6147,2.6142,2.6145,2.6131,2.6138,2.614,2.6142,2.6145,2.6086,2.6144,2.6144,2.6144,2.6143,2.6143,0,2.6256,2.6248,2.625,2.6244,2.6245,2.6226,2.622,2.6222,2.6226,2.6219,2.6219,2.6221,2.6222,2.6206,2.6204,2.621,2.62,2.621,2.6209,2.6207,2.6157,2.6153,2.6218,2.6218,2.6218,2.6218,2.6218,2.6218,2.629,2.6303,2.6292,2.6301,2.6293,2.6297,2.6295,2.6291,2.6285,2.6289,2.6289,2.6279,2.6268,2.6265,2.6264,2.626,2.626,2.6273,2.6265,2.6218,2.6211,2.6204,2.6199,2.6273,2.6273,2.6314,2.6314,2.6314]}]]